Observations for Trim Market St
| Time | AQI | Temp °C | Hum % | Pres Pa | CO μg/m³ | H₂S μg/m³ | NO μg/m³ | NO₂ μg/m³ | O₃ μg/m³ | SO₂ μg/m³ | PM1 μg/m³ | PM2.5 μg/m³ | PM10 μg/m³ |
|---|---|---|---|---|---|---|---|---|---|---|---|---|---|
| Wednesday 15 July 2026 | |||||||||||||
| 00:34 | 1 | 17.9 | 64 | 57,572 | 0.07 | 0 | 0 | 5.61 | 25.45 | 0 | 6.41 | 7.76 | 11.49 |
| 00:33 | 1 | 18 | 64 | 57,583 | 0.05 | 0 | 0 | 6.19 | 22.77 | 0 | 5.7 | 9.25 | 12.81 |
| 00:32 | 1 | 18 | 64 | 57,591 | 0.07 | 0 | 0 | 5.79 | 24.58 | 0 | 6.41 | 11.23 | 17.44 |
| 00:30 | 1 | 18 | 64 | 57,602 | 0.06 | 0 | 0 | 5.8 | 22.24 | 0 | 4.28 | 8.27 | 11.5 |
| 00:29 | 1 | 18 | 64 | 57,607 | 0.06 | 0 | 0 | 5 | 22.77 | 0 | 5.7 | 9.75 | 14.8 |
| 00:28 | 1 | 18 | 64 | 57,609 | 0.05 | 0 | 0 | 5.4 | 22.45 | 0 | 4.99 | 7.78 | 10.84 |
| 00:25 | 1 | 18.1 | 64 | 57,616 | 0.07 | 0 | 0.33 | 5.49 | 23.54 | 0 | 5.7 | 8.28 | 13.49 |
| 00:24 | 1 | 18.1 | 64 | 57,619 | 0.06 | 0 | 0 | 6.2 | 22.73 | 0 | 4.99 | 8.78 | 13.49 |
| 00:23 | 1 | 18.1 | 64 | 57,624 | 0.07 | 0 | 0 | 5.6 | 23.1 | 0 | 4.99 | 9.27 | 12.83 |
| 00:22 | 1 | 18.1 | 64 | 57,626 | 0.05 | 0 | 0 | 4.9 | 23.07 | 0 | 6.41 | 9.77 | 14.15 |
| 00:18 | 1 | 18.2 | 64 | 57,631 | 0.06 | 0 | 0 | 6.08 | 24.08 | 0 | 4.99 | 10.27 | 14.82 |
| 00:15 | 1 | 18.2 | 64 | 57,643 | 0.06 | 0 | 0 | 6.48 | 22.37 | 0 | 6.41 | 8.78 | 13.5 |
| 00:10 | 1 | 18.2 | 64 | 57,666 | 0.06 | 0 | 0 | 6.91 | 22.93 | 0 | 4.28 | 8.3 | 11.51 |
| 00:07 | 1 | 18.3 | 64 | 57,686 | 0.05 | 0 | 0 | 7 | 20.71 | 0 | 4.99 | 8.81 | 12.19 |
| 00:03 | 1 | 18.3 | 63 | 57,691 | 0.06 | 0 | 0 | 6.92 | 22.16 | 0 | 6.41 | 10.8 | 14.86 |
| 00:02 | 1 | 18.3 | 63 | 57,697 | 0.06 | 0 | 0 | 7.52 | 22.11 | 0 | 5.7 | 10.8 | 16.19 |
| 00:01 | 1 | 18.4 | 63 | 57,704 | 0.06 | 0 | 0 | 6.9 | 21.54 | 0 | 6.41 | 9.32 | 14.2 |
| 00:00 | 1 | 18.3 | 63 | 57,704 | 0.06 | 0 | 0 | 7.14 | 21.37 | 0 | 4.99 | 7.84 | 11.53 |
| Tuesday 14 July 2026 | |||||||||||||
| 23:59 | 1 | 18.4 | 63 | 57,706 | 0.06 | 0 | 0 | 6.71 | 22.57 | 0 | 4.28 | 8.33 | 11.53 |
| 23:58 | 1 | 18.4 | 63 | 57,708 | 0.05 | 0 | 0 | 7.52 | 22.38 | 0 | 6.41 | 9.33 | 14.21 |